Wind_Speed
6 10 8 3 3 4 6 3 2 2 4 4 6 8 8 4 1 3 16 22 20 17 12 10 13 13 13 14 13 13 14 14 14 15 15 16 15 16 16 17 17 17 18 18 18 19 20 21 21
14 14 3 2 4 3 6 4 4 3 8 9 9 6 7 3 2 12 14 24 20 17 12 10 13 13 13 13 12 12 13 15 15 15 14 15 16 16 17 18 18 18 18 19 18 20 20 21 22
12 4 3 4 4 3 5 3 7 11 13 4 6 7 5 3 6 14 21 25 20 16 12 12 13 13 14 13 11 13 15 15 16 15 16 15 17 16 16 18 20 19 19 20 20 21 21 22 22
7 2 3 3 3 5 5 7 6 11 3 6 11 9 5 3 12 16 32 23 20 16 12 13 13 14 14 14 13 13 14 15 16 16 16 15 15 16 16 17 19 19 19 20 20 21 21 22 21
2 3 3 1 6 3 6 10 13 12 5 5 1 5 3 4 17 31 29 24 19 15 10 11 12 11 12 13 12 13 13 15 18 17 16 15 15 16 16 17 18 19 19 19 21 21 21 22 21
3 3 1 4 4 2 5 11 8 4 7 8 6 6 3 18 28 30 26 21 14 13 10 10 10 10 10 11 12 12 12 14 19 17 16 15 16 17 17 18 18 18 19 19 20 20 21 22 21
5 3 4 4 3 4 3 4 8 8 8 4 13 5 4 9 28 28 23 18 13 10 11 10 8 8 8 11 12 10 11 13 16 17 16 16 17 16 16 17 17 18 18 19 19 19 21 20 21
5 4 1 2 3 6 8 2 4 8 1 9 9 7 6 14 31 27 20 15 13 12 11 10 8 6 7 9 9 9 12 12 15 18 16 15 16 16 17 17 17 17 18 18 19 19 20 20 20
5 2 3 7 7 3 6 6 3 6 10 2 4 7 14 37 32 26 22 19 17 14 14 12 9 7 9 9 9 6 9 11 15 18 18 16 16 15 16 17 16 18 18 18 19 21 21 21 21
5 4 8 7 9 7 6 8 9 5 3 4 5 14 35 34 32 27 23 23 23 21 17 13 11 13 14 13 8 9 10 11 14 18 20 19 16 16 17 17 19 18 18 19 20 21 21 23 22
5 6 6 4 8 13 11 7 5 11 3 7 13 20 26 26 24 24 24 27 26 20 15 11 10 10 10 8 5 8 9 8 12 16 20 20 16 15 18 19 22 18 21 22 24 25 25 27 24
2 2 7 6 8 8 12 9 7 5 7 12 22 27 25 20 22 23 21 26 27 22 17 12 10 8 7 5 6 8 7 6 10 14 19 20 17 16 19 20 23 20 22 24 25 26 26 28 23
3 3 4 8 10 9 10 6 8 3 11 19 21 21 18 18 22 22 29 30 30 26 19 13 9 8 7 5 6 7 6 5 8 12 17 19 18 16 18 19 21 20 22 22 25 25 25 28 26
2 6 8 5 7 8 8 4 7 3 14 19 20 18 15 18 19 25 32 30 28 24 17 13 10 8 6 6 5 6 4 3 6 10 15 18 18 15 17 19 19 20 21 21 22 24 27 28 29
6 5 1 3 8 7 8 2 6 16 16 19 17 16 15 12 27 30 30 32 29 22 19 15 12 9 7 4 3 3 4 2 4 8 13 17 18 15 15 17 17 20 20 20 22 25 28 30 31
4 5 3 5 8 4 7 10 4 18 19 16 15 16 15 13 24 28 35 33 29 25 21 16 11 9 8 4 2 1 3 1 4 7 12 15 17 13 15 15 18 19 19 21 21 26 29 33 34
5 4 6 3 4 4 6 7 9 18 16 17 17 17 13 11 19 27 35 36 31 27 24 17 12 9 5 6 9 6 3 1 2 5 9 12 15 11 12 14 15 17 17 20 19 23 28 34 37
8 5 4 6 7 7 6 9 5 17 16 19 17 16 14 17 18 27 33 35 31 26 21 18 15 11 11 8 5 6 6 2 3 5 10 10 11 9 10 13 14 17 19 19 19 22 26 30 32
5 4 6 7 9 6 14 8 9 15 12 13 16 17 16 16 19 24 31 35 32 26 22 18 15 10 7 6 7 7 7 8 7 10 9 7 11 8 10 13 14 15 19 19 17 23 28 29 27
8 10 12 5 4 7 5 11 9 17 24 23 24 20 18 14 14 23 26 30 31 29 24 19 15 10 9 7 8 8 9 11 10 11 13 9 8 7 10 11 13 14 18 18 17 22 24 19 21
8 6 5 7 2 4 6 7 6 12 17 14 17 16 18 22 19 18 23 26 32 30 25 20 16 12 10 7 5 6 7 10 11 13 13 14 10 11 13 14 15 17 18 16 16 20 20 17 16
3 3 4 5 5 3 4 5 7 6 17 18 19 17 18 19 17 18 22 23 30 30 25 20 14 12 12 11 11 11 11 10 10 11 13 15 10 13 15 16 17 17 17 13 17 20 18 15 15
5 2 2 1 2 1 3 1 6 2 8 18 22 18 19 19 20 18 23 26 32 31 26 19 14 13 12 12 12 11 10 10 9 11 10 11 13 15 17 19 19 17 15 14 18 19 17 17 17
3 4 7 5 3 3 3 4 6 5 8 7 9 15 20 19 18 21 25 29 30 28 23 17 15 14 11 11 10 9 10 9 10 10 12 12 12 14 19 19 16 16 15 18 19 17 16 17 16
6 6 4 4 3 6 5 2 5 8 10 5 14 17 19 19 18 18 23 24 26 27 22 19 16 15 12 10 9 9 9 10 9 11 11 13 14 15 17 14 16 14 17 20 17 19 18 16 18
3 7 5 4 3 7 5 3 4 3 7 12 14 17 18 18 16 17 23 24 26 26 21 19 16 15 12 11 11 10 10 10 9 10 11 13 12 13 14 12 16 16 21 18 17 25 19 17 16
1 2 5 3 2 3 2 1 4 5 11 13 17 18 17 17 17 17 22 22 25 24 22 19 17 15 12 12 9 10 10 9 10 11 11 12 13 12 11 15 15 19 21 16 21 27 20 18 16
3 3 3 3 2 4 4 4 5 5 9 11 14 16 16 17 16 14 20 21 24 25 21 18 16 14 12 9 9 10 10 9 10 10 10 13 13 11 13 15 15 20 18 18 27 26 20 19 16
6 4 2 3 4 4 3 6 3 8 12 14 14 15 17 16 15 14 19 22 29 25 20 20 16 13 11 10 10 10 9 9 10 10 12 14 12 12 12 13 16 20 17 21 28 25 21 19 20
6 4 4 4 6 2 3 5 12 10 13 16 15 15 14 16 15 17 21 22 23 21 21 18 14 13 11 11 9 9 8 8 10 12 13 13 12 12 13 11 17 19 16 24 26 25 23 22 20
Wind_Direction
143 137 115 63 31 41 321 316 119 104 58 5 61 84 106 32 80 175 138 161 146 140 130 106 90 79 70 62 57 51 48 44 40 35 33 31 31 27 24 22 20 16 12 9 4 1 357 354 352
140 136 106 105 83 36 283 348 128 155 138 141 76 87 54 76 53 121 110 151 152 140 131 107 95 84 72 63 60 54 51 45 40 36 34 32 28 25 23 21 18 16 13 9 7 2 358 355 353
154 144 92 125 123 205 211 183 144 140 164 115 113 39 90 109 104 140 150 152 147 133 120 97 86 78 66 62 64 57 51 46 39 36 32 31 24 20 19 17 15 14 12 9 8 2 360 357 355
162 19 12 84 204 239 189 170 147 142 70 43 113 77 78 196 154 136 149 152 143 130 115 94 80 74 65 58 66 63 57 50 39 35 32 30 23 20 19 17 14 12 11 9 7 4 1 360 358
162 62 73 359 282 268 114 171 171 142 92 122 110 125 65 143 136 147 158 154 141 127 114 98 82 74 69 72 75 72 62 52 39 36 33 30 24 20 19 16 14 12 10 11 7 6 5 3 1
52 93 72 219 246 102 154 179 168 96 117 148 85 98 138 141 131 145 153 148 139 133 126 114 95 85 81 75 78 82 67 55 37 36 34 30 26 22 20 17 15 13 11 10 8 7 5 3 3
126 98 226 337 248 76 238 202 135 133 140 153 141 88 141 139 143 147 145 140 134 125 127 120 108 97 88 83 82 73 65 61 42 38 38 33 28 26 23 19 16 15 13 11 10 8 4 3 2
120 105 159 256 237 208 160 126 115 122 68 113 151 152 178 164 147 140 137 133 132 133 132 132 116 101 93 96 87 64 75 58 36 40 37 32 30 32 27 21 17 15 13 12 11 9 5 2 2
123 83 280 223 188 215 139 125 31 49 127 65 336 152 158 152 149 142 139 142 146 149 142 142 118 85 125 104 111 68 53 33 27 28 28 25 31 41 34 25 21 12 14 13 11 8 6 2 8
135 149 232 226 166 144 131 125 144 111 147 45 53 100 134 145 148 146 153 158 152 140 132 128 122 99 112 120 91 55 27 26 30 24 25 28 38 44 39 32 16 21 17 20 14 10 8 5 7
183 206 188 249 128 130 140 130 128 128 233 197 160 143 146 148 154 157 168 167 162 147 135 123 124 117 119 106 73 51 42 29 27 22 25 29 41 46 37 30 16 22 20 20 17 12 12 6 8
196 341 163 189 139 131 158 138 130 172 214 150 157 153 153 160 167 168 163 162 151 143 129 115 112 116 92 84 69 50 63 38 34 27 24 28 38 42 36 27 17 21 20 16 12 9 9 5 3
118 200 149 166 154 142 131 161 155 221 118 129 143 153 160 166 172 167 156 149 148 135 128 115 113 106 88 90 78 51 77 53 41 30 25 24 34 38 30 24 19 18 19 17 10 7 7 4 1
165 136 133 129 139 149 139 150 106 147 140 140 151 161 168 176 150 142 147 144 143 135 126 115 113 104 94 90 63 48 102 83 32 29 26 25 32 36 28 22 21 17 15 13 12 5 2 0 357
146 105 59 174 166 167 117 194 230 152 158 153 161 166 177 161 151 153 154 148 146 139 128 120 110 103 82 93 48 42 127 112 32 30 23 26 26 33 26 21 23 15 12 13 9 4 3 2 357
124 91 174 238 175 180 132 249 145 164 158 165 169 174 179 155 155 155 155 151 146 141 135 126 114 112 87 68 292 210 145 130 32 23 17 24 25 26 17 18 18 12 15 14 12 5 4 2 358
353 236 217 312 226 131 167 250 184 171 168 169 177 182 168 139 147 153 155 152 146 139 138 131 123 118 103 82 83 91 146 166 42 25 26 27 27 26 16 19 13 10 11 13 12 12 10 1 356
230 236 258 225 221 199 188 243 159 172 180 179 179 184 166 158 163 155 151 150 146 142 137 124 121 101 114 95 70 68 52 82 82 60 33 27 25 18 11 19 15 9 9 12 14 11 9 8 356
221 242 256 272 225 136 214 217 172 179 191 185 188 191 170 162 158 143 145 145 141 137 128 125 122 112 110 84 57 42 28 77 81 48 24 19 12 11 18 19 15 14 15 9 12 7 6 11 7
247 257 265 262 229 166 188 235 193 184 206 191 190 191 165 153 152 141 139 140 141 136 131 125 113 103 96 74 64 70 84 65 73 38 30 20 5 54 37 32 25 20 14 7 14 12 10 10 14
239 224 223 220 146 330 107 311 241 215 221 205 210 189 167 159 151 147 143 140 139 136 132 125 115 100 82 66 77 79 82 58 43 37 39 36 63 46 33 26 25 16 9 15 14 12 10 3 1
227 262 230 113 105 210 125 271 273 238 210 206 202 186 162 159 141 144 141 138 134 135 132 126 115 97 80 68 68 66 56 50 48 48 39 43 38 29 26 18 11 9 7 22 10 3 1 356 351
209 193 97 118 135 185 199 198 268 285 266 212 205 175 156 155 146 141 140 132 133 136 131 125 113 93 79 75 70 66 65 74 58 39 35 37 35 27 20 13 9 9 21 11 2 359 355 354 342
148 58 33 38 70 305 260 141 290 327 308 320 164 148 145 143 138 127 126 126 130 134 130 126 112 100 88 86 74 66 68 58 42 38 40 33 19 19 15 12 9 10 9 0 357 353 354 353 352
68 56 353 342 351 241 316 74 247 290 313 176 131 133 135 134 130 128 127 127 131 135 133 126 116 106 96 94 87 73 57 48 40 40 38 23 17 14 13 11 8 7 358 350 356 355 348 349 346
166 147 156 227 231 273 311 257 253 332 23 77 101 116 121 126 122 124 131 133 136 140 137 130 118 112 104 103 89 70 58 53 48 40 34 21 19 14 9 7 0 358 351 351 359 353 347 346 348
98 150 188 171 268 22 243 309 310 91 72 91 109 116 121 118 124 127 128 131 139 142 139 131 119 114 104 98 80 65 56 48 46 36 25 23 16 14 12 2 359 354 355 357 354 353 353 352 353
122 170 23 4 281 291 296 282 246 179 134 122 114 117 114 119 120 122 128 128 136 141 137 128 120 111 105 87 77 64 55 51 36 28 26 24 14 16 4 359 357 355 358 2 354 356 358 353 350
345 344 40 128 142 195 263 277 293 204 151 134 131 129 129 128 130 133 134 134 139 137 130 125 118 111 102 97 79 65 53 40 32 23 22 21 11 12 1 358 356 357 358 0 357 358 356 353 343
119 57 96 104 307 255 144 277 339 132 126 124 124 129 127 131 136 140 139 136 133 128 130 127 120 109 116 107 84 70 57 35 29 24 22 15 10 5 359 360 1 358 1 357 359 355 355 351 342
Height
783 784 787 789 816 821 821 815 802 809 814 812 807 814 829 836 831 846 843 845 848 850 852 853 854 854 854 854 854 854 853 851 850 849 847 845 843 842 839 836 833 831 829 826 824 821 818 816 812
782 784 787 794 831 849 833 810 813 808 811 808 810 817 828 842 835 840 844 847 848 851 852 853 854 855 855 855 855 855 853 852 851 850 848 846 844 843 840 837 834 831 829 826 823 821 818 815 812
783 784 792 807 829 839 832 810 811 808 804 802 817 821 829 841 837 841 843 846 848 851 852 854 854 855 855 856 855 855 854 853 853 851 849 847 846 843 841 838 835 832 830 827 824 822 819 816 812
784 785 790 815 817 811 809 808 805 807 809 809 815 831 833 835 836 839 844 847 849 851 853 854 854 855 856 856 856 856 856 855 854 852 849 848 846 844 841 839 836 834 830 827 825 822 820 816 813
782 791 819 829 820 803 796 797 801 803 810 815 814 835 838 838 838 840 843 847 848 851 853 854 855 856 856 856 856 856 856 855 854 852 850 848 847 845 842 839 837 834 831 828 825 823 820 817 813
793 796 826 832 818 798 794 792 797 802 811 819 824 830 840 838 837 842 845 847 849 851 853 855 856 856 857 856 856 855 855 855 854 852 851 849 847 844 842 839 837 835 832 829 826 823 820 817 814
796 809 819 815 814 807 801 793 799 803 811 817 817 836 840 839 840 842 845 847 849 852 853 855 856 856 857 857 857 857 855 854 854 852 850 849 846 844 842 840 838 835 833 830 827 824 820 817 814
787 801 813 805 816 805 786 792 795 800 814 810 813 833 842 836 840 842 845 847 850 853 855 856 857 857 857 858 859 859 856 855 853 851 849 847 845 843 842 841 838 836 833 830 827 824 821 817 814
776 811 825 810 807 793 785 796 797 799 808 811 811 815 815 829 836 840 844 848 851 853 855 857 857 857 858 858 859 857 855 854 854 851 849 847 845 843 842 841 839 837 834 831 828 824 820 817 813
787 813 803 780 783 787 787 790 798 807 814 818 817 815 820 828 833 837 842 847 851 853 855 857 858 857 857 858 858 857 855 855 855 853 851 848 846 845 843 842 840 837 834 831 828 824 820 815 812
778 795 777 774 771 776 790 794 792 807 814 810 815 820 824 828 833 837 842 845 849 852 855 857 858 858 858 859 859 858 857 856 855 854 852 849 847 846 844 842 840 837 833 830 826 822 819 815 812
776 769 770 774 772 779 789 788 797 796 793 793 804 809 818 826 830 835 840 844 848 851 853 855 858 859 860 860 860 860 858 857 856 855 852 850 848 846 844 842 840 836 833 829 827 823 819 815 811
770 771 768 766 770 775 779 786 794 796 794 797 807 813 819 824 829 834 838 844 848 849 851 854 857 859 860 861 862 861 860 858 857 855 853 850 848 846 845 843 841 837 833 829 827 823 819 815 810
763 767 771 772 774 776 783 792 789 801 800 802 806 812 817 820 825 831 836 842 844 847 850 852 856 859 860 861 861 861 859 858 857 855 853 851 848 847 845 844 841 838 835 831 827 824 820 816 812
763 778 774 778 775 778 779 798 795 793 800 803 807 811 814 818 822 826 832 837 840 845 848 852 855 858 860 860 860 861 860 858 857 855 853 851 849 848 846 844 841 838 835 832 828 824 821 816 812
773 783 802 779 774 773 778 799 792 794 797 806 809 809 810 816 820 825 830 834 839 841 846 850 854 856 858 859 860 861 860 858 856 855 854 852 850 849 848 846 843 839 836 832 829 825 821 817 812
792 809 802 788 775 777 782 792 784 790 796 803 805 806 808 815 821 824 828 831 835 839 843 848 853 855 857 858 859 859 859 858 857 856 854 853 851 850 848 846 844 841 837 832 829 826 823 817 812
807 807 798 798 782 780 787 787 785 790 795 796 800 802 806 811 817 821 826 831 835 840 844 848 852 854 855 857 859 859 859 858 858 857 856 854 852 850 849 847 845 842 837 833 830 827 824 821 815
784 791 796 784 769 779 781 781 789 789 794 798 797 796 803 811 817 822 827 831 836 842 845 849 852 854 855 857 858 859 859 859 859 858 857 855 853 851 850 847 845 843 839 835 831 828 824 819 815
783 790 789 772 764 774 783 784 782 783 777 778 780 787 800 810 817 825 830 834 837 842 846 850 852 854 855 857 858 860 860 860 860 859 857 854 853 849 848 845 844 842 838 835 831 828 827 823 820
780 786 779 777 770 769 780 793 780 777 773 778 777 782 795 801 812 824 831 836 840 843 847 850 853 855 856 857 859 860 860 860 859 858 857 856 854 852 848 847 844 843 838 834 833 830 827 824 823
777 760 760 772 785 804 776 816 782 765 769 770 771 777 793 804 814 823 830 837 840 845 848 850 853 855 857 858 859 860 860 860 859 858 857 857 856 853 850 846 844 842 839 836 833 831 829 826 823
767 752 759 763 780 786 788 805 777 759 763 763 758 770 789 800 811 822 831 836 842 846 849 852 854 856 858 859 860 860 860 860 859 858 855 855 855 854 850 846 845 841 838 837 833 831 829 826 823
749 761 774 782 791 812 787 797 795 786 776 760 759 774 789 802 815 825 833 838 844 848 851 854 855 858 860 861 861 861 861 860 860 858 855 855 855 852 850 847 845 842 839 836 832 831 828 825 821
764 788 820 819 821 820 781 796 793 781 772 760 770 782 794 805 815 825 834 841 846 849 853 855 857 859 861 861 862 862 862 861 862 860 857 857 855 853 849 848 845 842 840 836 831 830 827 823 819
769 785 819 825 828 809 783 796 788 776 777 770 778 789 800 810 820 828 836 842 847 851 855 857 858 859 861 861 863 864 863 861 862 860 858 857 854 853 850 848 846 843 839 835 830 829 825 820 816
769 788 776 797 800 816 804 788 780 780 786 787 791 797 806 816 824 831 839 844 849 853 856 857 859 861 862 863 864 864 864 863 862 860 860 857 855 853 850 848 845 843 838 834 830 827 821 817 814
758 762 795 807 813 818 805 795 794 788 793 796 802 807 815 822 830 837 842 846 850 853 856 858 860 862 864 865 866 865 865 865 864 862 860 856 855 853 851 848 845 842 838 833 830 825 819 815 812
779 784 783 792 808 819 825 812 775 775 784 796 805 811 817 825 832 837 842 846 849 853 856 858 860 863 864 867 868 866 867 865 864 864 860 856 855 853 849 847 846 842 837 832 829 824 819 814 811
771 783 790 816 810 807 818 815 785 774 786 795 808 815 820 825 831 837 843 849 854 856 856 859 861 862 866 866 867 866 865 867 864 863 860 856 855 854 850 847 845 842 836 833 829 823 818 814 809